Regional Weather Roundup
Issued by NWS State College, PA

Home | Current Version | Previous Version | Graphics & Text | Print | Product List | Glossary On
Versions: 1 2 3 4 5 6 7 8 9 10 11 12 13 14 15 16 17 18 19 20 21 22 23 24 25 26 27 28 29 30 31 32 33 34 35 36 37 38 39 40 41 42 43 44 45 46 47 48 49 50
000
ASUS41 KCTP 191410
RWRCTP

REGIONAL WEATHER ROUNDUP
NATIONAL WEATHER SERVICE STATE COLLEGE PA
900 AM EST MON FEB 19 2018

Note: "fair" indicates few or no clouds below 12,000 feet with no
significant weather and/or obstructions to visibility.

* = STATION THAT DOES NOT REPORT PRECIPITATION /E.G. RAIN...SNOW...ETC/
    THUNDER OR FOG.

PAZ002>004-007>009-013>016-020>023-029>032-191500-
WESTERN PENNSYLVANIA

CITY           SKY/WX    TMP DP  RH WIND       PRES   REMARKS
ERIE           LGT RAIN  43  35  73 S21G31    30.09F
MEADVILLE      LGT RAIN  40  37  89 VRB7      30.12F
FRANKLIN*      LGT RAIN  37  36  93 SE12      30.16F
NEW CASTLE     LGT RAIN  43  40  89 E5        30.14F
BEAVER COUNTY  LGT RAIN  41  34  75 SE6       30.15F
BUTLER*        LGT RAIN  44  38  79 SE6       30.19S
PITTSBURGH INT LGT RAIN  45  40  82 SE8       30.15F
PITTSBURGH     LGT RAIN  47  37  68 S9        30.18S
INDIANA*       CLOUDY    41  39  93 SE9G16    30.26S
LATROBE        CLOUDY    50  45  81 S9        30.22S
WASHINGTON CO* RAIN      48  44  86 S8        30.21S
$$

PAZ004>006-010>012-017>019-024>028-033>037-041-042-045-046-049>053-191500-
CENTRAL PENNSYLVANIA

CITY           SKY/WX    TMP DP  RH WIND       PRES   REMARKS
BRADFORD       CLOUDY    36  31  82 SE9       30.20F
DUBOIS         CLOUDY    36  33  89 SE9       30.21S FOG
CLEARFIELD     MIX PCPN  34  32  92 NE5       30.28R FOG
JOHNSTOWN      CLOUDY    37  34  89 SE12      30.23S FOG
ALTOONA        CLOUDY    37  33  85 S9        30.32S
STATE COLLEGE  CLOUDY    37  32  81 SW5       30.35R
WILLIAMSPORT   CLOUDY    39  30  70 NE13G20   30.38S
SELINSGROVE    CLOUDY    38  30  73 S8        30.41F
FT INDIANTOWN  CLOUDY    35  35 100 CALM      30.45S
CAPITAL CITY   CLOUDY    41  33  73 SE7       30.44F
HARRISBURG     CLOUDY    39  33  79 SE7       30.44F
YORK           CLOUDY    39  34  82 S5        30.43F
$$

PAZ038>040-043-044-047-048-054-055-060>062-067>071-191500-
EASTERN PENNSYLVANIA

CITY           SKY/WX    TMP DP  RH WIND       PRES   REMARKS
SCRANTON       CLOUDY    38  27  64 VRB6      30.38F
MOUNT POCONO   NOT AVBL
ALLENTOWN      CLOUDY    38  28  67 CALM      30.48F
QUAKERTOWN*    MOSUNNY   34  30  86 CALM      30.47F
READING        CLOUDY    39  33  79 S6        30.46F
LANCASTER      CLOUDY    37  33  85 SE5       30.46F
COATESVILLE    CLOUDY    36 N/A N/A S7        30.47F
POTTSTOWN      PTSUNNY   37  31  78 CALM      30.48F
BLUE BELL      FAIR      41  34  75 S6        30.51S
DOYLESTOWN     FAIR      39  32  76 CALM      30.48S
WILLOW GROVE   NOT AVBL
NORTH PHILA    FAIR      41  34  76 CALM      30.52S
PHILADELPHIA   PTSUNNY   40  34  79 S3        30.51F
$$




USA.gov is the U.S. government's official web portal to all federal, state and local government web resources and services.